Погода Пильво

Погода Пильво : погода сейчас, прогноз погоды и архив. Всё, что Вы хотите узнать о погоде Пильво!

Хотите узнать прогноз погоды Пильво? Тогда Вам сюда: Погода Пильво

Поиск расширенной информации на нашем сайте:

Другие новости

Новости СМИ2

Главная страница сайта

Новости сайта

03.07.2017

Напоминаем, что на нашем специализированном сайте Метеоцентр.Азия вы можете получить высокодетализированные автоматические прогнозы погоды по пунктам России, СНГ и мира в авиационном формате (включающие направление и скорость ветра, видимость, явления погоды, количество и форму облачности, нижнюю и верхнюю границу облачности).


Погода Пильво - сегодня

Время (UTC), дата Ветер
(°,м/с) 
Видим.   Явления Облачность Т
(°С)
Тd
(°С)
f(%) Тe
(°С)
Pmin
(гПа)
dP
(гПа)
Po
(мм)
O2
(г/м3)
Тmin Tmax R s Состояние
почвы
09 15.08.17 310 (СЗ) 4-5{06}  20000 м    9/8 600 м средняя 
[Sc diur, vesp|Ac trans]
+18.3 +15 81 +27  1013.7  760  284    +20.3       
12 15.08.17 130 (ЮВ) 1-2{05}  н/о    н/о 
+16.3 +14.6 90 +26  1014.5  0.7  760  286           
15 15.08.17 120 (ЮВ) 2-3{04}  н/о    н/о 
+15.3 +14.2 93 +23  1014.4  0.1  760  287           
18 15.08.17 100 (В) 2-3{05}  н/о    н/о 
+15.1 +14 93 +23  1014.5  0.1  760  287           
21 15.08.17 110 (В) 4-5{05}  20000 м    8/0 средняя 
[Ac trans]
+14.3 +13.3 94 +20  1015  0.5  761  289  +13.6        сухая 
00 16.08.17 230 (ЮЗ) 1-2{05}  20000 м  {ливн. осадки}  10/8 600 м кучево-дожд., средняя 
[Cb cap|Ac As]
+18 +15.4 85 +28  1015.6  0.7  761  285           
03 16.08.17 200 (Ю) 5-7{07}  20000 м    10/4 600 м кучево-дожд., средняя 
[Cb cap|Ac As]
+18.4 +15.5 83 +28  1015.4  -0.3  761  284           
06 16.08.17 210 (ЮЗ) 4-6{08}  20000 м    10/6 600 м средняя 
[Sc|Ac As]
+18.6 +15.3 81 +28  1015.2  -0.3  761  284           
09 16.08.17 220 (ЮЗ) 2-3{06}  20000 м    10/4 600 м средняя 
[Sc|Ac As]
+18 +14.4 79 +26  1015.2  761  285    +18.8  0.5     
12 16.08.17 100 (В) 1-1{03}  н/о    н/о 
+16.2 +14.8 91 +26  1015.5  761  286           
15 16.08.17 110 (В) 2-2{03}  н/о    н/о 
+15.8 +15 95 +25  1015.2  -0.2  761  287           
18 16.08.17 310 (СЗ) 6-8{08}  н/о    н/о 
+16.2 +15.6 96 +25  1015  -0.2  761  286           
21 16.08.17 300 (СЗ) 3-4{08}  10 км  слаб. ливневой дождь  9/9 200 м кучево-дожд. 
[Cb cap]
+16.1 +14.9 93 +24  1015.4  0.4  761  286  +15.6      влажная 
00 17.08.17 270 (З) 1-2{04}  10 км  слаб. ливневой дождь  10/10 200 м кучево-дожд. 
[Cb cap]
+16.2 +15 93 +26  1015.8  0.4  761  286           
03 17.08.17 290 (З) 4-5{06}  20000 м  в посл. час ливневой дождь  9/8 300 м кучево-дожд., средняя 
[Cb cap|Ac trans]
+17.8 +14.7 82 +26  1015.5  -0.3  761  285           
06 17.08.17 290 (З) 3-5{06}  20000 м  {ливн. осадки}  9/4 600 м кучево-дожд., средняя 
[Cb cap|Ac trans]
+17.6 +14 79 +25  1014.8  -0.7  761  285           
09 17.08.17 300 (СЗ) 5-7{08}  20000 м  {ливн. осадки}  9/8 300 м кучево-дожд., средняя 
[Cb cap|Ac trans]
+16.9 +14 83 +24  1014.6  -0.2  761  286    +18.2  0.4     
12 17.08.17 110 (В) 2-3{07}  н/о    н/о 
+15 +14 94 +23  1015  0.4  761  288           
15 17.08.17 110 (В) 2-3{03}  н/о    н/о 
+13.5 +12.9 96 +19  1014.4  -0.5  760  289           
18 17.08.17 110 (В) 3-4{04}  н/о    н/о 
+13.2 +12.5 96 +17  1014.2  -0.2  760  290           
21 17.08.17 110 (В) 3-4{05}  20000 м    8/3 600 м средняя 
[Sc diur, vesp|Ac trans]
+13.6 +12.9 96 +19  1014.4  0.2  760  289  +13    0.3    влажная 
00 18.08.17 290 (З) 3-5{05}  20000 м    6/3 600 м кучево-дожд., средняя 
[Cb calv|Ac trans]
+17.5 +13.3 76 +24  1014.7  0.3  761  285           
03 18.08.17 310 (СЗ) 5-6{06}  20000 м    3/1 600 м средняя 
[Cu med, cong|Ac lent]
+18.9 +14.1 74 +26  1014.2  -0.5  760  284           
06 18.08.17 310 (СЗ) 5-6{06}  20000 м    3/3 600 м 
[Cu med, cong]
+18.9 +13.6 71 +25  1013.8  -0.4  760  284           
09 18.08.17 300 (СЗ) 3-4{06}  20000 м    ясно 
+17.6 +14 79 +25  1013.7  0.1  760  285    +19.6       
Время (UTC), дата Ветер
(°,м/с) 
Видим.   Явления Облачность Т
(°С)
Тd
(°С)
f(%) Тe
(°С)
Pmin
(гПа)
dP
(гПа)
Po
(мм)
O2
(г/м3)
Тmin Tmax R s Состояние
почвы

Для получения пояснительной информации подведите курсор к названию столбца.

ПОГОДА Пильво - архив

Всё, что Вы хотите узнать о погоде Пильво - удобно и подробно!

Выберите нужную дату (начиная с 1 января 2015* года) и нажмите кнопку "Найти".
Будут отображены архивные сводки погоды по пункту Пильво, начиная с указанной даты.


Отображать данные в формате CSV (для использования в таблицах Excel)


Внимание! Наш архив погоды предназначен исключительно для личного некоммерческого использования в познавательных целях. Если Вам необходимы официальные справки о состоянии погоды (для производственных, юридических, коммерческих и т.п. целей), обращайтесь в органы Росгидромета.

*Примечание: данная дата относится к архиву по метеостанциям СССР (Россия, СНГ, Балтия).
Архив по метеостанциям Зарубежной Европы и Азии (кроме Китая) хранится 10 дней, по другим регионам земного шара (Китай, Африка, Америка, Австралия, Океания) - 1 день.

Пильво - район местоположения метеостанции


Название, широта, долгота, высота метеостанции:
Пильво 50.1°ш. 142.2°д. 4 м над ур. моря [Российская Федерация]

Дополнительная информация

В oтличие oт бoльшинства пoгoдных сайтoв мы публикуем пoдрoбную метеoинфoрмацию в детальнoм прoфессиoнальнoм фoрмате.

Характеристики температуры и влажнoсти вoздуха измеряются на высoте 2 м в тени вдали oт зданий и деревьев.
Скoрoсть ветра измеряется на высoте 10 м (на урoвне рoста челoвека скoрoсть ветра ниже в 1.5-2 раза). Если метеoстанция нахoдится в гoрoде или в лесу, тo скoрoсть ветра занижена на 2-4 м/с пo сравнению с oткрытым местoм. Скoрoсть ветра над акватoриями крупных рек и oзёр, а также на вершинах хoлмoв на 2-5 м/с выше, чем в oбычных услoвиях.
Атмoсфернoе давление в разных тoчках местнoсти мoжет значительнo oтличаться oт давления на метеoстанции, в зависимoсти oт услoвий рельефа (при пoдъёме на 10 м давление пoнижается примернo на 1 мм рт.ст.).